London, United Kingdom

4:22 AM GMT on February 08, 2016 (GMT +0000)
Heathrow

Weather History for EGLL - October, 2010

Change the Weather History Date:

Saturday, October 9, 2010

  Actual Average Record
Temperature  
Mean Temperature 61 °F -  
Max Temperature 63 °F 56 °F 69 °F (2006)
Min Temperature 59 °F 44 °F 41 °F (2008)
Degree Days  
Heating Degree Days 4    
Growing Degree Days 11 (Base 50)    
Moisture  
Dew Point 56 °F    
Average Humidity 83    
Maximum Humidity 88    
Minimum Humidity 73    
Precipitation  
Precipitation 0.00 in - - ()
Sea Level Pressure  
Sea Level Pressure 29.96 in    
Wind  
Wind Speed 8 mph ()    
Max Wind Speed 14 mph    
Max Gust Speed -    
Visibility 4.1 miles    
Events      
Averages and records for this station are not official NWS values.
T = Trace of Precipitation, MM = Missing Value Source: Averaged Metar Reports

Daily Weather History Graph

Daily Weather History Graph

Search for Another Location

Airport or City:

Trip Planner

Search our weather history database for the weather conditions in past years. The results will help you decide how hot, cold, wet, or windy it might be!

Date:

Astronomy

Oct. 09, 2010 Rise Set
Actual Time 7:15 AM BST 6:21 PM BST
Civil Twilight 6:41 AM BST 6:55 PM BST
Nautical Twilight 6:03 AM BST 7:33 PM BST
Astronomical Twilight 5:24 AM BST 8:12 PM BST
Moon 9:43 AM BST (10/9) 6:38 PM BST (10/9)
Length of Visible Light 12h 13m
Length of Day
11h 06m
Waxing Crescent, 4% of the Moon is Illuminated
Oct 9
Waxing Crescent
Oct 14
First Quarter
Oct 23
Full
Oct 30
Last Quarter
Nov 6
New

Hourly Weather History & Observations

Time (BST) Temp. Dew Point Humidity Pressure Visibility Wind Dir Wind Speed Gust Speed Precip Events Conditions
12:20 AM 60.8 °F 57.2 °F 88% 30.04 in 2.2 mi East 8.1 mph - N/A   Haze
12:50 AM 61 °F 58 °F 85% 30.03 in 2 mi East 6.9 mph - -   Light Haze
12:50 AM 60.8 °F 57.2 °F 88% 30.04 in - East 8.1 mph - N/A   Haze
1:20 AM 60.8 °F 57.2 °F 88% 30.04 in - ENE 6.9 mph - N/A   Haze
1:50 AM 60.8 °F 57.2 °F 88% 30.04 in - ENE 8.1 mph - N/A   Haze
2:20 AM 60.8 °F 57.2 °F 88% 30.01 in 2.5 mi ENE 9.2 mph - N/A   Haze
2:50 AM 60.8 °F 57.2 °F 88% 30.01 in - ENE 8.1 mph - N/A   Haze
3:20 AM 60.8 °F 57.2 °F 88% 30.01 in 3.1 mi ENE 9.2 mph - N/A   Haze
3:50 AM 60 °F 57 °F 86% 30.00 in 3 mi ENE 10.4 mph - -   Light Haze
3:50 AM 60.8 °F 57.2 °F 88% 30.01 in 3.1 mi ENE 9.2 mph - N/A   Haze
4:20 AM 60.8 °F 55.4 °F 82% 29.98 in - ENE 9.2 mph - N/A   Haze
4:50 AM 60.8 °F 55.4 °F 82% 29.98 in - ENE 10.4 mph - N/A   Haze
5:20 AM 60.8 °F 57.2 °F 88% 29.98 in 2.8 mi ENE 11.5 mph - N/A   Haze
5:50 AM 60.8 °F 55.4 °F 82% 29.98 in - ENE 10.4 mph - N/A   Haze
6:20 AM 60.8 °F 55.4 °F 82% 29.98 in - ENE 10.4 mph - N/A   Haze
6:50 AM 60 °F 57 °F 85% 30.00 in 3 mi ENE 9.2 mph - -   Light Haze
6:50 AM 60.8 °F 55.4 °F 82% 30.01 in - ENE 10.4 mph - N/A   Haze
7:20 AM 59.0 °F 55.4 °F 88% 30.01 in - ENE 10.4 mph - N/A   Haze
7:50 AM 59.0 °F 55.4 °F 88% 30.01 in - NE 9.2 mph - N/A   Haze
8:20 AM 59.0 °F 55.4 °F 88% 29.98 in - ENE 8.1 mph - N/A   Haze
8:50 AM 59.0 °F 55.4 °F 88% 29.98 in - ENE 10.4 mph - N/A   Haze
9:20 AM 59.0 °F 55.4 °F 88% 29.98 in - ENE 10.4 mph - N/A   Haze
9:50 AM 60 °F 56 °F 84% 29.99 in 3 mi ENE 11.5 mph - -   Light Haze
9:50 AM 59.0 °F 55.4 °F 88% 29.98 in - ENE 11.5 mph - N/A   Haze
10:20 AM 60.8 °F 55.4 °F 82% 29.98 in - ENE 10.4 mph - N/A   Haze
10:50 AM 60.8 °F 57.2 °F 88% 29.98 in 2.5 mi ENE 9.2 mph - N/A   Haze
11:20 AM 60.8 °F 57.2 °F 88% 29.98 in - ENE 13.8 mph - N/A   Haze
11:50 AM 60.8 °F 57.2 °F 88% 29.98 in - ENE 12.7 mph - N/A   Haze
12:20 PM 60.8 °F 57.2 °F 88% 29.98 in - ENE 10.4 mph - N/A   Haze
12:50 PM 62 °F 57 °F 79% 29.97 in 4 mi ENE 10.4 mph - -   Light Haze
12:50 PM 60.8 °F 57.2 °F 88% 29.98 in 3.1 mi ENE 11.5 mph - N/A   Haze
1:20 PM 62.6 °F 57.2 °F 82% 29.95 in 3.1 mi ENE 10.4 mph - N/A   Haze
1:50 PM 62.6 °F 57.2 °F 82% 29.95 in 3.7 mi ENE 8.1 mph - N/A   Mostly Cloudy
2:20 PM 62.6 °F 57.2 °F 82% 29.95 in 3.7 mi ENE 6.9 mph - N/A   Mostly Cloudy
2:50 PM 64.4 °F 57.2 °F 77% 29.92 in 4.3 mi ENE 10.4 mph - N/A   Mostly Cloudy
3:20 PM 62.6 °F 57.2 °F 82% 29.92 in 5.0 mi ENE 11.5 mph - N/A   Mostly Cloudy
3:50 PM 63 °F 56 °F 73% 29.92 in 6 mi ENE 9.2 mph - -   Light Haze
3:50 PM 62.6 °F 55.4 °F 77% 29.92 in 5.0 mi ENE 12.7 mph - N/A   Mostly Cloudy
4:20 PM 62.6 °F 57.2 °F 82% 29.92 in 5.6 mi East 9.2 mph - N/A   Mostly Cloudy
4:50 PM 62.6 °F 57.2 °F 82% 29.92 in 5.6 mi East 9.2 mph - N/A   Mostly Cloudy
5:20 PM 62.6 °F 57.2 °F 82% 29.92 in 5.6 mi East 9.2 mph - N/A   Mostly Cloudy
5:50 PM 62.6 °F 57.2 °F 82% 29.92 in 5.6 mi East 8.1 mph - N/A   Mostly Cloudy
6:20 PM 62.6 °F 57.2 °F 82% 29.92 in 5.0 mi East 5.8 mph - N/A   Mostly Cloudy
6:50 PM 63 °F 57 °F 74% 29.93 in 6 mi ENE 8.1 mph - -   Light Haze
6:50 PM 62.6 °F 57.2 °F 82% 29.92 in 5.6 mi ENE 8.1 mph - N/A   Mostly Cloudy
7:20 PM 62.6 °F 55.4 °F 77% 29.92 in 6.2 mi ENE 10.4 mph - N/A   Mostly Cloudy
7:50 PM 60.8 °F 53.6 °F 77% 29.92 in 5.6 mi ENE 10.4 mph - N/A   Mostly Cloudy
8:20 PM 60.8 °F 53.6 °F 77% 29.92 in 5.6 mi ENE 10.4 mph - N/A   Mostly Cloudy
8:50 PM 59.0 °F 53.6 °F 82% 29.92 in 5.0 mi ENE 10.4 mph - N/A   Mostly Cloudy
9:20 PM 59.0 °F 53.6 °F 82% 29.92 in 4.3 mi ENE 9.2 mph - N/A   Mostly Cloudy
9:50 PM 60 °F 54 °F 74% 29.92 in 4 mi NE 8.1 mph - -   Light Haze
9:50 PM 59.0 °F 53.6 °F 82% 29.92 in 4.3 mi ENE 8.1 mph - N/A   Mostly Cloudy
10:20 PM 59.0 °F 53.6 °F 82% 29.92 in 4.3 mi ENE 8.1 mph - N/A   Mostly Cloudy
10:50 PM 59.0 °F 53.6 °F 82% 29.92 in 3.1 mi NE 5.8 mph - N/A   Haze
11:20 PM 59.0 °F 53.6 °F 82% 29.92 in 3.1 mi NE 6.9 mph - N/A   Haze
11:50 PM 59.0 °F 53.6 °F 82% 29.92 in 3.1 mi NE 4.6 mph - N/A   Haze